Weather History for KRNO - May, 2014

Change the Weather History Date:

Friday, May 16, 2014

  Actual Average Record
Temperature  
Mean Temperature 70 °F 60 °F  
Max Temperature 88 °F 74 °F 95 °F (1970)
Min Temperature 52 °F 46 °F 25 °F (1943)
Degree Days  
Heating Degree Days 0 6  
Month to date heating degree days 87 132  
Since 1 July heating degree days 4495 4794  
Cooling Degree Days 5 1  
Month to date cooling degree days 16 9  
Year to date cooling degree days 16 10  
Growing Degree Days 20 (Base 50)    
Moisture  
Dew Point 17 °F    
Average Humidity 22    
Maximum Humidity 39    
Minimum Humidity 5    
Precipitation  
Precipitation 0.00 in 0.02 in 0.85 in (1962)
Month to date precipitation 0.02 0.25  
Year to date precipitation 1.48 3.53  
Snow  
Snow 0.00 in 0.00 in 9.00 in (1962)
Month to date snowfall T 0.2  
Since 1 July snowfall 6.2 21.7  
Snow Depth 0.00 in    
Sea Level Pressure  
Sea Level Pressure 29.97 in    
Wind  
Wind Speed 7 mph (WSW)    
Max Wind Speed 28 mph    
Max Gust Speed 36 mph    
Visibility 10 miles    
Events      
T = Trace of Precipitation, MM = Missing Value Source: NWS Daily Summary

Daily Weather History Graph

Daily Weather History Graph

Search for Another Location

Airport or City:

Trip Planner

Search our weather history database for the weather conditions in past years. The results will help you decide how hot, cold, wet, or windy it might be!

Date:

Astronomy

May. 16, 2014 Rise Set
Actual Time 5:44 AM PDT 8:07 PM PDT
Civil Twilight 5:13 AM PDT 8:37 PM PDT
Nautical Twilight 4:36 AM PDT 9:15 PM PDT
Astronomical Twilight 3:54 AM PDT 9:57 PM PDT
Moon 10:18 PM PDT (5/16) 7:30 AM PDT (5/16)
Length of Visible Light 15h 24m
Length of Day
14h 23m
Waning Gibbous, 95% of the Moon is Illuminated
May 16
Waning Gibbous
May 21
Last Quarter
May 28
New
Jun 5
First Quarter
Jun 12
Full

Hourly Weather History & Observations

Time (PDT) Temp. Dew Point Humidity Pressure Visibility Wind Dir Wind Speed Gust Speed Precip Events Conditions
12:55 AM 61.0 °F 26.1 °F 26% 30.06 in 10.0 mi SSE 3.5 mph - N/A   Overcast
1:55 AM 60.1 °F 27.0 °F 28% 30.04 in 10.0 mi Calm Calm - N/A   Overcast
2:55 AM 55.9 °F 28.0 °F 34% 30.04 in 10.0 mi South 3.5 mph - N/A   Overcast
3:55 AM 57.0 °F 28.9 °F 34% 30.04 in 10.0 mi Calm Calm - N/A   Overcast
4:55 AM 54.0 °F 28.0 °F 37% 30.04 in 10.0 mi Calm Calm - N/A   Mostly Cloudy
5:55 AM 53.1 °F 28.0 °F 38% 30.04 in 10.0 mi East 3.5 mph - N/A   Overcast
6:55 AM 55.9 °F 28.9 °F 36% 30.05 in 10.0 mi Calm Calm - N/A   Overcast
7:55 AM 57.0 °F 32.0 °F 39% 30.05 in 10.0 mi SSE 3.5 mph - N/A   Overcast
8:55 AM 64.9 °F 27.0 °F 24% 30.03 in 10.0 mi Calm Calm - N/A   Overcast
9:55 AM 72.0 °F 24.1 °F 17% 30.01 in 10.0 mi Variable 3.5 mph - N/A   Overcast
10:55 AM 79.0 °F 14.0 °F 9% 29.98 in 10.0 mi SE 4.6 mph - N/A   Overcast
11:55 AM 79.0 °F 10.9 °F 8% 29.97 in 10.0 mi Variable 3.5 mph - N/A   Mostly Cloudy
12:55 PM 82.9 °F 10.9 °F 7% 29.94 in 10.0 mi Variable 4.6 mph - N/A   Mostly Cloudy
1:55 PM 88.0 °F 10.0 °F 5% 29.91 in 10.0 mi West 17.3 mph 32.2 mph N/A   Scattered Clouds
2:07 PM 87.1 °F 9.0 °F 5% 30.07 in 10.0 mi WSW 15.0 mph 29.9 mph N/A   Scattered Clouds
2:55 PM 86.0 °F 12.9 °F 7% 29.91 in 10.0 mi WNW 21.9 mph 29.9 mph N/A   Mostly Cloudy
3:55 PM 84.9 °F 10.9 °F 6% 29.90 in 10.0 mi WNW 23.0 mph 32.2 mph N/A   Scattered Clouds
4:55 PM 82.9 °F 10.9 °F 7% 29.90 in 10.0 mi WNW 18.4 mph 32.2 mph N/A   Scattered Clouds
5:55 PM 81.0 °F 10.9 °F 7% 29.91 in 10.0 mi West 17.3 mph 28.8 mph N/A   Scattered Clouds
6:55 PM 79.0 °F 7.0 °F 6% 29.89 in 10.0 mi NW 15.0 mph 27.6 mph N/A   Partly Cloudy
7:55 PM 75.9 °F 5.0 °F 6% 29.90 in 10.0 mi SW 3.5 mph - N/A   Scattered Clouds
8:55 PM 72.0 °F 9.0 °F 9% 29.91 in 10.0 mi NW 5.8 mph - N/A   Scattered Clouds
9:55 PM 70.0 °F 10.0 °F 10% 29.93 in 10.0 mi WNW 9.2 mph - N/A   Partly Cloudy
10:55 PM 66.9 °F 10.9 °F 11% 29.92 in 10.0 mi SW 5.8 mph - N/A   Partly Cloudy
11:55 PM 64.9 °F 12.0 °F 13% 29.94 in 10.0 mi SSE 4.6 mph - N/A   Partly Cloudy